Showing default

CINEMA 2, 39424

Orbit data source: Space-Track

CINEMA 2, 39424 is a payload satellite owned by Kyung Hee U (US) in SSO that was launched on Thu, 21 Nov 2013 UTC via a DNEPR launch vehicle from the Orenburg, Russia (OREN). Payload-class satellites include a variety of spacecraft equipped with specific instruments for various scientific and technological missions. These include communications satellites like Starlink; space stations such as the ISS; scientific satellites like the Hubble; Earth observation satellites from companies like Planet Labs, Umbra, and HawkEye 360; GPS; miniature CubeSats for education and research; and military/defense satellites.

Loading next visibility...
Identifier
39424, 2013-066J
Orbit
SSO
Country
Flag of USUS
Related business
Manufacturer
KHUS/UCB
Mission
Non-operational Amateur Science
Bus & Motor
CUBESAT 3U, Unknown motor
Mass
4 kg wet, 4 kg dry
Launch date (UTC)
2013-11-21 (12 years ago)
Launch vehicle
DNEPR
Launch site
Orenburg, Russia (OREN)
Object type
Payload
Rocket body
Debris
Shape & HBR
Box + 1 Rod, 0.3 m
Radar Cross Section
0.035 m², Small (<0.1 m²)

Expand to show TLE details & history
Last TLE update: 6 hours ago

TLE from 6 hours ago
0 CINEMA 2
1 39424U 13066J   26037.79329270  .00003119  00000-0  36442-3 0  9991
2 39424  97.8796 330.2768 0075417 194.6114 165.2920 14.83827857656756
Epoch: 2026-02-06T19:02Z
TLE epoch observation values (Epoch: 2026-02-06T19:02:20.489Z)
Latitude
-0.00008°
Longitude
-92.23463°
Altitude
671.36 km
Speed
7.494 km/s
True Right ascension
22h 01m 06s
True Declination
0° 00' 00"
Sunlit
Object was in daylight at epoch
Visualization orbit readout
Latitude
Unknown
Longitude
Unknown
Altitude
Unknown
Speed
Unknown
Apparent Right ascension
Unknown
Apparent Declination
Unknown
Sunlit
N/A
Visualization observer readout
Local Sidereal Time
02:43:55
Azimuth
Unknown
Elevation
Unknown
Doppler factor
Unknown
Orbital elements
Apogee altitude
667.037 km
Perigee altitude
561.567 km
Semi-major axis
6,992.439 km
Eccentricity
0.00754
Inclination
97.8796°
RAAN
330.2768°
Arg. of periapsis
194.6114°
True anomaly
165.50943°
Mean anomaly
165.292°
Eccentric anomaly
165.40091°
Mean motion
3.71193 °/min
Orbital period
96.98 mins
BSTAR
0.00036442
Loading maneuver chart data...
Computing Atmospheric mass density...
Loading historical data...
Loading historical data...
Loading historical data...
Loading historical data...
Loading historical data...
Loading historical data...
Loading historical data...

Documentation

Showing up to 5 results
|